Location: Aix-en-Ergny
(50.5839°N, 1.9996°E)
Time: 10:34:40
(UTC+00:00)

COBE Rocket - Pass Details

Date: 23 October 2019
Orbit: 680 x 782 km, 97.1° (Epoch: 14 November)

Event Time Altitude Azimuth Distance (km) Brightness Sun altitude
Rises 05:18:22 0° 181° (S) 3,207 7.3 -11.6°
Reaches altitude 10° 05:20:42 10° 186° (S) 2,298 6.5 -11.2°
Maximum altitude 05:25:40 51° 263° (W) 975 4.2 -10.4°
Drops below altitude 10° 05:30:44 10° 339° (NNW) 2,348 6.3 -9.6°
Sets 05:33:09 0° 344° (NNW) 3,283 7.0 -9.2°
